GW3373 Weather Reports


Display with metric or nautical units.
time (UTC)temp
F
wind
direction
speed
MPH
gust
MPH
rain 1hr
in
rain 24hr
in
rain mn
in
humidity
%
barometer
mb
20260507171808 61 303 1.0 1.0 0.00 0.01 0.01 35 1006.7
20260507170808 61 35 2.0 2.0 0.00 0.01 0.01 38 1006.8
20260507165807 59 246 0.0 1.0 0.00 0.01 0.01 37 1006.9
20260507164805 60 93 2.0 3.0 0.00 0.01 0.01 36 1007.3
20260507163805 60 239 3.0 6.0 0.00 0.01 0.01 42 1007.2
20260507162804 60 191 2.0 3.0 0.00 0.01 0.01 42 1007.3
20260507161803 60 340 4.0 6.0 0.00 0.01 0.01 39 1007.3
20260507160801 60 275 4.0 4.0 0.00 0.01 0.01 40 1007.6
20260507155759 60 262 0.0 0.0 0.00 0.01 0.01 47 1007.5
20260507154758 59 284 0.0 1.0 0.00 0.01 0.01 44 1007.6
20260507153758 59 345 2.0 4.0 0.00 0.01 0.01 50 1007.7
20260507152757 58 312 2.0 2.0 0.00 0.01 0.01 51 1007.7
20260507151754 58 307 0.0 1.0 0.00 0.01 0.01 51 1007.7
20260507150754 58 21 1.0 1.0 0.00 0.01 0.01 46 1007.9
20260507145753 57 317 4.0 4.0 0.00 0.01 0.01 50 1007.9
20260507144752 57 217 1.0 2.0 0.00 0.01 0.01 53 1008.3
20260507143752 56 263 2.0 2.0 0.00 0.01 0.01 55 1008.2
20260507142751 55 328 2.0 2.0 0.00 0.01 0.01 61 1008.0
20260507141750 55 202 2.0 2.0 0.00 0.01 0.01 63 1007.9
20260507140749 54 253 0.0 1.0 0.00 0.01 0.01 68 1007.8
20260507135750 55 209 1.0 2.0 0.00 0.01 0.01 67 1008.2
20260507134749 54 245 2.0 3.0 0.00 0.01 0.01 74 1007.9
20260507133747 54 309 1.0 2.0 0.00 0.01 0.01 74 1007.7
20260507132742 54 255 1.0 1.0 0.00 0.01 0.01 75 1007.8
20260507131741 53 294 3.0 3.0 0.00 0.01 0.01 76 1008.0
20260507130740 52 324 1.0 2.0 0.00 0.01 0.01 78 1008.0
20260507125737 52 217 2.0 3.0 0.00 0.01 0.01 79 1007.9
20260507124737 52 234 2.0 2.0 0.00 0.01 0.01 80 1007.8
20260507123732 51 212 2.0 3.0 0.00 0.01 0.01 79 1008.0
20260507122730 51 226 2.0 4.0 0.00 0.01 0.01 81 1007.9
20260507121728 50 327 1.0 1.0 0.00 0.01 0.01 82 1007.9
20260507120726 49 330 2.0 4.0 0.00 0.01 0.01 82 1007.9
20260507115725 48 294 0.0 1.0 0.00 0.01 0.01 85 1008.1
20260507114722 48 305 1.0 2.0 0.00 0.01 0.01 86 1008.1
20260507113718 49 299 1.0 1.0 0.00 0.01 0.01 86 1007.9
20260507112712 48 265 0.0 1.0 0.00 0.01 0.01 91 1007.6
20260507111712 48 284 0.0 0.0 0.00 0.01 0.01 91 1007.7
20260507110710 48 284 0.0 0.0 0.00 0.01 0.01 93 1007.9
20260507105710 47 250 0.0 0.0 0.00 0.01 0.01 94 1007.7
20260507104709 47 280 0.0 0.0 0.00 0.01 0.01 94 1007.7
20260507103708 47 256 0.0 0.0 0.00 0.01 0.01 94 1007.6
20260507102707 47 256 0.0 0.0 0.00 0.01 0.01 93 1007.5
20260507101705 47 275 0.0 0.0 0.00 0.01 0.01 93 1007.2
20260507100704 47 294 1.0 1.0 0.00 0.01 0.01 93 1007.1
20260507095700 47 263 0.0 0.0 0.00 0.01 0.01 93 1007.1
20260507094659 47 290 0.0 1.0 0.00 0.01 0.01 94 1006.9
20260507093659 47 330 1.0 2.0 0.00 0.01 0.01 94 1007.0
20260507092654 47 251 0.0 1.0 0.00 0.01 0.01 95 1007.1
20260507091653 47 279 0.0 1.0 0.00 0.01 0.01 95 1007.2
20260507090651 47 290 0.0 0.0 0.00 0.01 0.01 95 1007.4
20260507085651 47 251 0.0 0.0 0.00 0.01 0.01 95 1007.6
20260507084651 47 270 0.0 0.0 0.00 0.01 0.01 96 1007.6
20260507083650 47 257 0.0 0.0 0.00 0.01 0.01 96 1007.9
20260507082648 47 270 0.0 0.0 0.00 0.01 0.01 97 1007.3
20260507081646 47 272 0.0 0.0 0.00 0.01 0.01 98 1007.1
20260507080645 47 282 0.0 1.0 0.00 0.01 0.01 98 1007.3
20260507075642 47 281 0.0 0.0 0.00 0.01 0.01 98 1007.2
20260507074641 47 269 0.0 0.0 0.00 0.01 0.01 97 1007.2
20260507073641 48 269 0.0 0.0 0.05 0.01 0.01 96 1007.2
20260507072641 48 269 0.0 0.0 0.00 0.00 0.00 93 1007.2
20260507071641 49 311 1.0 2.0 0.00 0.00 0.00 91 1007.2
20260507070640 49 275 0.0 1.0 0.00 0.00 0.00 91 1007.1
20260507065639 49 283 0.0 0.0 0.00 0.00 0.00 91 1006.7
20260507064640 49 296 1.0 1.0 0.00 0.00 0.00 90 1006.7
20260507063636 49 302 1.0 2.0 0.00 0.00 0.00 91 1006.5
20260507062635 49 301 0.0 0.0 0.00 0.00 0.00 91 1006.5
20260507061630 49 300 0.0 1.0 0.00 0.00 0.00 94 1006.9
20260507060626 49 266 1.0 1.0 0.00 0.00 0.00 93 1006.8
20260507055623 50 267 0.0 1.0 0.00 0.00 0.00 91 1006.8
20260507054621 50 296 0.0 1.0 0.00 0.00 0.00 91 1006.8
20260507053616 50 289 0.0 0.0 0.00 0.00 0.00 93 1007.2
20260507052612 51 240 3.0 4.0 0.00 0.00 0.00 95 1007.1
20260507051612 51 291 0.0 0.0 0.00 0.00 0.00 99 1007.7
20260507050611 51 256 0.0 0.0 0.00 0.00 0.00 98 1007.2
20260507045610 51 279 0.0 0.0 0.00 0.00 0.00 98 1007.5
20260507044610 51 279 0.0 0.0 0.00 0.00 0.00 99 1007.2
20260507043609 52 270 0.0 0.0 0.00 0.00 0.00 99 1007.1
20260507042608 53 270 0.0 0.0 0.00 0.00 0.00 99 1007.4
20260507041606 53 270 0.0 0.0 0.00 0.00 0.00 99 1006.9
20260507040606 54 264 0.0 0.0 0.00 0.00 0.00 99 1007.0
20260507035604 55 291 0.0 1.0 0.00 0.22 0.22 99 1007.1
20260507034603 55 290 0.0 0.0 0.00 0.22 0.22 99 1007.2
20260507033559 55 279 0.0 0.0 0.07 0.22 0.22 99 1006.9
20260507032559 56 302 1.0 1.0 0.00 0.21 0.21 98 1006.9
20260507031558 56 280 0.0 0.0 0.00 0.21 0.21 98 1006.7
20260507030557 56 264 0.0 0.0 0.00 0.21 0.21 98 1006.6
20260507025552 57 275 0.0 0.0 0.00 0.21 0.21 98 1006.4
20260507024553 57 298 0.0 0.0 0.00 0.21 0.21 98 1006.3
20260507023550 58 277 0.0 0.0 0.00 0.21 0.21 98 1006.1
20260507022545 59 254 1.0 1.0 0.00 0.21 0.21 99 1005.9
20260507021543 59 158 3.0 6.0 0.00 0.21 0.21 99 1006.1
20260507020537 59 275 0.0 0.0 0.00 0.21 0.21 99 1006.0
20260507015538 59 248 1.0 2.0 0.00 0.21 0.21 99 1005.8
20260507014537 58 243 0.0 0.0 0.00 0.21 0.21 99 1005.7
20260507013535 58 243 1.0 2.0 0.00 0.21 0.21 99 1005.9
20260507012530 58 237 0.0 1.0 0.00 0.21 0.21 99 1005.4
20260507011530 58 245 1.0 2.0 0.00 0.21 0.21 99 1005.6
20260507010526 58 332 2.0 3.0 0.00 0.21 0.21 99 1005.9
20260507005526 58 248 0.0 0.0 0.00 0.21 0.21 99 1005.8
20260507004525 58 240 0.0 1.0 0.00 0.21 0.21 99 1005.9
20260507003524 58 235 2.0 2.0 0.00 0.21 0.21 99 1005.5
20260507002522 58 218 1.0 2.0 0.00 0.21 0.21 99 1005.7
20260507001520 57 208 1.0 2.0 0.00 0.21 0.21 99 1005.6
20260507000520 57 206 1.0 1.0 0.00 0.21 0.21 99 1005.7
20260506235519 57 206 2.0 2.0 0.00 0.21 0.21 99 1005.6
20260506234518 57 206 0.0 0.0 0.00 0.21 0.21 99 1005.6
20260506233518 58 206 0.0 1.0 0.00 0.21 0.21 99 1005.5
20260506232517 58 206 1.0 1.0 0.00 0.21 0.21 99 1005.4
20260506231516 58 205 1.0 1.0 0.00 0.21 0.21 99 1005.4
20260506230515 58 205 0.0 1.0 0.00 0.21 0.21 99 1005.5
20260506225510 58 206 1.0 2.0 0.00 0.21 0.21 99 1005.4
20260506224509 58 205 1.0 2.0 0.17 0.21 0.21 99 1005.5
20260506223507 58 205 2.0 2.0 0.07 0.18 0.18 99 1005.5
20260506222506 58 205 2.0 2.0 0.05 0.17 0.17 99 1005.7
20260506221505 58 206 1.0 2.0 0.05 0.17 0.17 99 1005.7
20260506220503 58 206 1.0 1.0 0.12 0.16 0.16 99 1005.7
20260506215502 58 206 1.0 1.0 0.00 0.14 0.14 99 1005.7
20260506214500 58 207 0.0 1.0 0.07 0.14 0.14 99 1005.8
20260506213455 58 205 2.0 2.0 0.05 0.13 0.13 99 1005.9
20260506212453 58 217 1.0 1.0 0.00 0.12 0.12 99 1006.0
20260506211450 58 218 1.0 1.0 0.00 0.12 0.12 99 1005.9
20260506210450 58 218 2.0 2.0 0.00 0.12 0.12 99 1006.2
20260506205449 58 220 2.0 2.0 0.00 0.12 0.12 99 1006.2
20260506204449 58 203 3.0 3.0 0.00 0.12 0.12 99 1006.3
20260506203450 58 227 2.0 2.0 0.07 0.12 0.12 99 1006.3
20260506202450 58 206 1.0 3.0 0.00 0.11 0.11 99 1006.5
20260506201449 58 218 2.0 2.0 0.07 0.11 0.11 99 1006.6
20260506200448 59 240 1.0 1.0 0.05 0.10 0.10 99 1006.5
20260506195448 59 222 2.0 2.0 0.07 0.09 0.09 99 1006.6
20260506194447 59 228 2.0 2.0 0.00 0.08 0.08 99 1006.3
20260506193447 59 200 3.0 3.0 0.05 0.08 0.08 99 1006.4
20260506192447 60 184 3.0 3.0 0.07 0.07 0.07 98 1006.6
20260506191446 60 184 3.0 3.0 0.05 0.06 0.06 99 1006.7
20260506190445 60 217 2.0 2.0 0.05 0.06 0.06 98 1006.6
20260506185445 60 241 0.0 1.0 0.07 0.05 0.05 98 1006.7
20260506184445 60 224 1.0 1.0 0.05 0.04 0.04 98 1006.5
20260506183443 61 230 1.0 2.0 0.07 0.03 0.03 96 1006.8
20260506182438 61 213 2.0 2.0 0.05 0.02 0.02 95 1007.1
20260506181433 62 226 1.0 2.0 0.00 0.01 0.01 92 1007.4
20260506180431 63 251 0.0 0.0 0.00 0.00 0.00 89 1007.1
20260506175431 64 227 3.0 4.0 0.00 0.00 0.00 82 1007.3
20260506174426 66 217 2.0 3.0 0.00 0.00 0.00 76 1007.5
20260506173425 68 188 4.0 4.0 0.00 0.00 0.00 71 1007.1
20260506172425 69 228 3.0 3.0 0.00 0.00 0.00 67 1007.1